Vero Beach, FL

10:40 PM EDT on June 27, 2017 (GMT -0400)
Vero Beach Municipal

Weather History for KVRB - January, 2014

Change the Weather History Date:

Thursday, January 30, 2014

  Actual Average Record
Temperature  
Mean Temperature 61 °F 63 °F  
Max Temperature 65 °F 73 °F 86 °F (1991)
Min Temperature 56 °F 52 °F 30 °F (1978)
Degree Days  
Heating Degree Days 4 4  
Month to date heating degree days 172 149  
Since 1 July heating degree days 201 284  
Cooling Degree Days 0 2  
Month to date cooling degree days 65 60  
Year to date cooling degree days 65 60  
Growing Degree Days 10 (Base 50)    
Moisture  
Dew Point 59 °F    
Average Humidity 95    
Maximum Humidity 100    
Minimum Humidity 90    
Precipitation  
Precipitation 0.83 in 0.08 in 0.83 in (2014)
Month to date precipitation 4.42 2.43  
Year to date precipitation 4.42 2.43  
Sea Level Pressure  
Sea Level Pressure 30.10 in    
Wind  
Wind Speed 8 mph (NNW)    
Max Wind Speed 23 mph    
Max Gust Speed 29 mph    
Visibility 7 miles    
Events Rain    
T = Trace of Precipitation, MM = Missing Value Source: NWS Daily Summary

Daily Weather History Graph

Daily Weather History Graph

Search for Another Location

Airport or City:

Trip Planner

Search our weather history database for the weather conditions in past years. The results will help you decide how hot, cold, wet, or windy it might be!

Date:

Astronomy

Jan. 30, 2014 Rise Set
Actual Time 7:09 AM EST 6:01 PM EST
Civil Twilight 6:44 AM EST 6:25 PM EST
Nautical Twilight 6:16 AM EST 6:53 PM EST
Astronomical Twilight 5:48 AM EST 7:21 PM EST
Moon 6:37 AM EST (1/30) 6:05 PM EST (1/30)
Length of Visible Light 11h 40m
Length of Day
10h 51m
Waning Crescent, 0% of the Moon is Illuminated
Jan 30
Waning Crescent
Jan 30
New
Feb 6
First Quarter
Feb 14
Full
Feb 22
Last Quarter

Hourly Weather History & Observations

Time (EST) Temp. Dew Point Humidity Pressure Visibility Wind Dir Wind Speed Gust Speed Precip Events Conditions
12:53 AM 61.0 °F 59.0 °F 93% 30.11 in 7.0 mi North 10.4 mph - N/A   Overcast
1:53 AM 61.0 °F 60.1 °F 97% 30.10 in 4.0 mi North 13.8 mph 19.6 mph N/A   Overcast
2:23 AM 60.8 °F 59.0 °F 94% 30.10 in 6.0 mi North 10.4 mph - N/A   Overcast
2:40 AM 60.8 °F 60.8 °F 100% 30.08 in 7.0 mi North 11.5 mph - N/A   Overcast
2:53 AM 63.0 °F 61.0 °F 93% 30.09 in 7.0 mi West 13.8 mph - N/A   Overcast
3:00 AM 62.6 °F 60.8 °F 94% 30.09 in 7.0 mi WNW 20.7 mph 24.2 mph N/A   Overcast
3:10 AM 64.4 °F 62.6 °F 94% 30.08 in 6.0 mi NNE 13.8 mph 28.8 mph N/A   Overcast
3:40 AM 64.4 °F 64.4 °F 100% 30.09 in 10.0 mi NNW 9.2 mph - 0.01 in   Overcast
3:53 AM 64.9 °F 64.0 °F 97% 30.08 in 10.0 mi North 12.7 mph - 0.01 in   Overcast
4:44 AM 55.4 °F 55.4 °F 100% 30.08 in 4.0 mi North 10.4 mph - 0.08 in Rain Light Rain
4:53 AM 55.9 °F 55.0 °F 97% 30.08 in 9.0 mi North 9.2 mph - 0.08 in Rain Light Rain
5:13 AM 57.2 °F 55.4 °F 94% 30.09 in 5.0 mi North 4.6 mph - 0.01 in Rain Rain
5:26 AM 57.2 °F 55.4 °F 94% 30.10 in 3.0 mi NW 9.2 mph - 0.08 in Rain Rain
5:53 AM 57.0 °F 55.9 °F 96% 30.10 in 8.0 mi NNW 8.1 mph - 0.09 in   Overcast
6:53 AM 57.0 °F 55.9 °F 96% 30.11 in 8.0 mi NW 9.2 mph - 0.01 in   Overcast
7:53 AM 57.0 °F 55.9 °F 96% 30.11 in 10.0 mi NNW 8.1 mph - N/A   Overcast
8:03 AM 57.2 °F 55.4 °F 94% 30.12 in 10.0 mi NW 8.1 mph - N/A   Overcast
8:53 AM 57.9 °F 57.0 °F 97% 30.13 in 8.0 mi NNW 4.6 mph - 0.00 in Rain Light Rain
9:14 AM 59.0 °F 57.2 °F 94% 30.13 in 2.5 mi NNW 5.8 mph - 0.05 in Rain Rain
9:32 AM 59.0 °F 59.0 °F 100% 30.14 in 3.0 mi Calm Calm - 0.10 in Rain Light Rain
9:50 AM 60.8 °F 59.0 °F 94% 30.13 in 4.0 mi NNW 4.6 mph - 0.13 in Rain Light Rain
9:53 AM 60.1 °F 59.0 °F 96% 30.14 in 4.0 mi NNW 5.8 mph - 0.14 in Rain Light Rain
10:53 AM 59.0 °F 57.9 °F 96% 30.15 in 8.0 mi WNW 6.9 mph - 0.08 in Rain Light Rain
11:53 AM 59.0 °F 57.0 °F 93% 30.13 in 8.0 mi NW 9.2 mph - 0.04 in Rain Light Rain
12:53 PM 59.0 °F 57.0 °F 93% 30.11 in 10.0 mi NNW 9.2 mph - 0.01 in Rain Light Rain
1:53 PM 60.1 °F 57.9 °F 93% 30.09 in 10.0 mi WNW 6.9 mph - 0.01 in Rain Light Rain
2:53 PM 61.0 °F 60.1 °F 97% 30.08 in 7.0 mi North 3.5 mph - 0.05 in Rain Light Rain
3:51 PM 62.6 °F 60.8 °F 94% 30.08 in 8.0 mi North 8.1 mph - 0.03 in Rain Light Rain
3:53 PM 62.1 °F 61.0 °F 96% 30.07 in 8.0 mi North 9.2 mph - 0.03 in Rain Light Rain
4:53 PM 62.1 °F 61.0 °F 96% 30.09 in 6.0 mi NNW 5.8 mph - 0.05 in Rain Light Rain
5:53 PM 61.0 °F 60.1 °F 97% 30.09 in 7.0 mi North 6.9 mph - 0.06 in Rain Light Rain
6:53 PM 60.1 °F 59.0 °F 96% 30.10 in 8.0 mi NNW 10.4 mph - 0.06 in Rain Light Rain
7:53 PM 60.1 °F 59.0 °F 96% 30.10 in 9.0 mi North 5.8 mph - 0.02 in   Overcast
8:04 PM 60.8 °F 59.0 °F 94% 30.10 in 9.0 mi NNW 8.1 mph - N/A   Overcast
8:53 PM 60.1 °F 59.0 °F 96% 30.10 in 5.0 mi NNW 9.2 mph - N/A   Overcast
9:53 PM 60.1 °F 59.0 °F 96% 30.13 in 5.0 mi West 6.9 mph - 0.00 in   Overcast
10:53 PM 60.1 °F 60.1 °F 100% 30.09 in 5.0 mi North 5.8 mph - 0.08 in Rain Light Rain
11:53 PM 60.1 °F 60.1 °F 100% 30.09 in 5.0 mi WNW 4.6 mph - 0.01 in Rain Light Rain